EN

Hourly Weather Dziecielec

Today, 26 October, Monday

Time Temperature Precipitation Wind Pressure Humidity
00:00 +10°C° 0 mm 5 mps 743 mmHg 86%
01:00 +10°C° 0 mm 5 mps 742 mmHg 86%
02:00 +9°C° 0 mm 5 mps 742 mmHg 87%
03:00 +9°C° 0 mm 5 mps 742 mmHg 88%
04:00 +10°C° 0 mm 4 mps 742 mmHg 89%
05:00 +8°C° 0 mm 4 mps 742 mmHg 90%
06:00 +8°C° 0 mm 4 mps 741 mmHg 92%
07:00 +8°C° 0 mm 4 mps 741 mmHg 94%
08:00 +10°C° 0 mm 4 mps 741 mmHg 90%
09:00 +11°C° 0 mm 4 mps 741 mmHg 86%
10:00 +11°C° 0 mm 4 mps 741 mmHg 83%
11:00 +12°C° 0 mm 4 mps 741 mmHg 81%
12:00 +13°C° 0 mm 4 mps 741 mmHg 79%
13:00 +13°C° 0 mm 4 mps 741 mmHg 77%
14:00 +13°C° 0 mm 4 mps 740 mmHg 79%
15:00 +13°C° 0 mm 4 mps 740 mmHg 80%
16:00 +12°C° 0 mm 4 mps 740 mmHg 82%
17:00 +12°C° 0 mm 3 mps 740 mmHg 84%
18:00 +12°C° 0 mm 3 mps 740 mmHg 85%
19:00 +12°C° 0 mm 3 mps 740 mmHg 86%
20:00 +12°C° 0.1 mm 3 mps 740 mmHg 86%
21:00 +12°C° 0.1 mm 3 mps 740 mmHg 86%
22:00 +12°C° 0.1 mm 3 mps 741 mmHg 86%
23:00 +11°C° 0.1 mm 3 mps 741 mmHg 89%

Tomorrow, 27 October, Tuesday

Time Temperature Precipitation Wind Pressure Humidity
00:00 +12°C° 0.1 mm 2 mps 741 mmHg 91%
01:00 +12°C° 0.1 mm 2 mps 741 mmHg 93%
02:00 +12°C° 0.1 mm 2 mps 741 mmHg 94%
03:00 +12°C° 0.1 mm 2 mps 741 mmHg 94%
04:00 +10°C° 0.1 mm 2 mps 741 mmHg 94%
05:00 +11°C° 0 mm 1 mps 742 mmHg 94%
06:00 +11°C° 0 mm 1 mps 742 mmHg 94%
07:00 +11°C° 0 mm 1 mps 742 mmHg 94%
08:00 +11°C° 0 mm 1 mps 742 mmHg 91%
09:00 +11°C° 0 mm 0 mps 742 mmHg 87%
10:00 +11°C° 0 mm 0 mps 743 mmHg 84%
11:00 +12°C° 0 mm 1 mps 743 mmHg 84%
12:00 +12°C° 0 mm 1 mps 743 mmHg 85%
13:00 +12°C° 0 mm 1 mps 743 mmHg 85%
14:00 +12°C° 0.9 mm 1 mps 743 mmHg 89%
15:00 +12°C° 0.9 mm 1 mps 742 mmHg 92%
16:00 +11°C° 0.9 mm 1 mps 742 mmHg 95%
17:00 +10°C° 1.4 mm 2 mps 742 mmHg 94%
18:00 +10°C° 1.4 mm 2 mps 742 mmHg 93%
19:00 +9°C° 1.4 mm 3 mps 743 mmHg 92%
20:00 +9°C° 0.4 mm 3 mps 743 mmHg 91%
21:00 +9°C° 0.4 mm 3 mps 743 mmHg 90%
22:00 +9°C° 0.4 mm 3 mps 743 mmHg 89%
23:00 +9°C° 0 mm 3 mps 743 mmHg 89%

Day after tomorrow, 28 October, Wednesday

Time Temperature Precipitation Wind Pressure Humidity
00:00 +9°C° 0 mm 3 mps 743 mmHg 89%
01:00 +8°C° 0 mm 3 mps 744 mmHg 89%
02:00 +8°C° 0 mm 3 mps 744 mmHg 90%
03:00 +8°C° 0 mm 3 mps 744 mmHg 91%
04:00 +6°C° 0 mm 4 mps 744 mmHg 91%
05:00 +6°C° 0 mm 4 mps 744 mmHg 91%
06:00 +6°C° 0 mm 4 mps 744 mmHg 90%
07:00 +6°C° 0 mm 4 mps 744 mmHg 89%
08:00 +7°C° 0 mm 5 mps 744 mmHg 83%
09:00 +8°C° 0 mm 6 mps 744 mmHg 77%
10:00 +9°C° 0 mm 6 mps 744 mmHg 71%
11:00 +10°C° 0 mm 6 mps 744 mmHg 67%
12:00 +11°C° 0 mm 6 mps 744 mmHg 63%
13:00 +11°C° 0 mm 6 mps 744 mmHg 60%
14:00 +11°C° 0 mm 6 mps 744 mmHg 62%
15:00 +10°C° 0 mm 5 mps 744 mmHg 65%
16:00 +11°C° 0 mm 4 mps 744 mmHg 68%
17:00 +11°C° 0 mm 4 mps 744 mmHg 70%
18:00 +10°C° 0 mm 4 mps 744 mmHg 72%
19:00 +10°C° 0 mm 4 mps 744 mmHg 74%
20:00 +9°C° 0 mm 5 mps 744 mmHg 73%
21:00 +9°C° 0 mm 5 mps 744 mmHg 73%
22:00 +9°C° 0 mm 5 mps 744 mmHg 73%
23:00 +8°C° 0 mm 5 mps 744 mmHg 76%

29 October, Thursday

Time Temperature Precipitation Wind Pressure Humidity
00:00 +8°C° 0 mm 5 mps 744 mmHg 79%
01:00 +7°C° 0 mm 4 mps 743 mmHg 82%
02:00 +7°C° 0 mm 4 mps 743 mmHg 82%
03:00 +7°C° 0 mm 5 mps 743 mmHg 82%
04:00 +7°C° 0 mm 5 mps 743 mmHg 82%
05:00 +7°C° 0 mm 5 mps 743 mmHg 83%
06:00 +7°C° 0 mm 5 mps 743 mmHg 84%
07:00 +7°C° 0 mm 5 mps 743 mmHg 84%
08:00 +7°C° 0.1 mm 5 mps 743 mmHg 85%
09:00 +7°C° 0.1 mm 5 mps 743 mmHg 85%
10:00 +8°C° 0.1 mm 5 mps 743 mmHg 85%
11:00 +8°C° 0.5 mm 5 mps 743 mmHg 84%
12:00 +9°C° 0.5 mm 5 mps 744 mmHg 82%
13:00 +9°C° 0.5 mm 6 mps 744 mmHg 81%
14:00 +9°C° 0.1 mm 5 mps 744 mmHg 79%
15:00 +9°C° 0.1 mm 5 mps 744 mmHg 77%
16:00 +10°C° 0.1 mm 4 mps 745 mmHg 76%
17:00 +8°C° 0 mm 4 mps 745 mmHg 78%
18:00 +8°C° 0 mm 4 mps 745 mmHg 79%
19:00 +7°C° 0 mm 4 mps 746 mmHg 81%
20:00 +7°C° 0 mm 4 mps 746 mmHg 82%
21:00 +7°C° 0 mm 5 mps 746 mmHg 82%
22:00 +7°C° 0 mm 5 mps 746 mmHg 83%
23:00 +7°C° 0 mm 5 mps 746 mmHg 83%

30 October, Friday

Time Temperature Precipitation Wind Pressure Humidity
00:00 +7°C° 0 mm 5 mps 746 mmHg 82%
01:00 +7°C° 0 mm 5 mps 746 mmHg 82%
02:00 +7°C° 0 mm 6 mps 746 mmHg 81%
03:00 +8°C° 0 mm 6 mps 745 mmHg 80%
04:00 +8°C° 0 mm 7 mps 745 mmHg 80%
05:00 +8°C° 0.2 mm 7 mps 745 mmHg 82%
06:00 +8°C° 0.2 mm 7 mps 745 mmHg 84%
07:00 +9°C° 0.2 mm 7 mps 745 mmHg 86%
08:00 +9°C° 0 mm 7 mps 745 mmHg 86%
09:00 +10°C° 0 mm 7 mps 745 mmHg 86%
10:00 +11°C° 0 mm 7 mps 745 mmHg 85%
11:00 +11°C° 0.1 mm 7 mps 746 mmHg 85%
12:00 +11°C° 0.1 mm 7 mps 746 mmHg 84%
13:00 +11°C° 0.1 mm 7 mps 746 mmHg 83%
14:00 +11°C° 0.1 mm 7 mps 746 mmHg 84%
15:00 +11°C° 0.1 mm 7 mps 746 mmHg 85%
16:00 +11°C° 0.1 mm 6 mps 746 mmHg 86%
17:00 +11°C° 0 mm 6 mps 747 mmHg 84%
18:00 +11°C° 0 mm 6 mps 747 mmHg 82%
19:00 +11°C° 0 mm 6 mps 747 mmHg 81%
20:00 +11°C° 0 mm 6 mps 747 mmHg 81%
21:00 +11°C° 0 mm 6 mps 747 mmHg 81%
22:00 +12°C° 0 mm 5 mps 747 mmHg 80%
23:00 +12°C° 0 mm 5 mps 748 mmHg 81%

31 October, Saturday

Time Temperature Precipitation Wind Pressure Humidity
00:00 +12°C° 0 mm 5 mps 748 mmHg 82%
01:00 +12°C° 0 mm 5 mps 748 mmHg 82%
02:00 +11°C° 0 mm 4 mps 748 mmHg 85%
03:00 +10°C° 0 mm 4 mps 748 mmHg 87%
04:00 +10°C° 0 mm 4 mps 748 mmHg 89%
05:00 +10°C° 0 mm 4 mps 748 mmHg 90%
06:00 +8°C° 0 mm 4 mps 748 mmHg 90%
07:00 +8°C° 0 mm 4 mps 748 mmHg 91%
Show more